TimeEST,TemperatureF,Dew PointF,Humidity,Sea Level PressureIn,VisibilityMPH,Wind Direction,Wind SpeedMPH,Gust SpeedMPH,PrecipitationIn,Events,Conditions,WindDirDegrees,DateUTC
12:54 AM,61.0,54.0,78,30.09,10.0,South,8.1,-,N/A,,Clear,190,2013-01-30 05:54:00
1:54 AM,59.0,54.0,83,30.08,9.0,SSW,6.9,-,N/A,,Clear,200,2013-01-30 06:54:00
2:54 AM,60.1,55.0,83,30.06,8.0,SSW,11.5,-,N/A,,Clear,200,2013-01-30 07:54:00
3:54 AM,59.0,55.0,87,30.05,6.0,SSW,8.1,-,N/A,,Clear,200,2013-01-30 08:54:00
4:54 AM,60.1,55.9,86,30.04,6.0,SSW,11.5,-,N/A,,Clear,200,2013-01-30 09:54:00
5:17 AM,60.8,55.4,82,30.03,5.0,South,9.2,-,N/A,,Partly Cloudy,190,2013-01-30 10:17:00
5:54 AM,61.0,57.0,87,30.04,6.0,South,10.4,-,N/A,,Scattered Clouds,190,2013-01-30 10:54:00
6:03 AM,60.8,57.2,88,30.03,6.0,South,10.4,-,N/A,,Mostly Cloudy,190,2013-01-30 11:03:00
7:33 AM,64.4,59.0,83,30.02,8.0,SSW,12.7,-,N/A,,Scattered Clouds,200,2013-01-30 12:33:00
7:54 AM,64.0,59.0,84,30.01,10.0,SSW,13.8,21.9,N/A,,Clear,200,2013-01-30 12:54:00
8:54 AM,68.0,60.1,76,29.99,10.0,South,11.5,23.0,N/A,,Clear,190,2013-01-30 13:54:00
9:54 AM,70.0,61.0,73,29.99,10.0,South,16.1,25.3,N/A,,Clear,190,2013-01-30 14:54:00
10:54 AM,73.0,61.0,66,29.97,10.0,SSW,17.3,24.2,N/A,,Clear,200,2013-01-30 15:54:00
11:54 AM,73.9,60.1,62,29.94,10.0,SSW,18.4,24.2,N/A,,Clear,200,2013-01-30 16:54:00
12:54 PM,75.0,60.1,60,29.89,10.0,South,15.0,25.3,N/A,,Clear,190,2013-01-30 17:54:00
1:54 PM,75.9,59.0,56,29.85,10.0,South,17.3,27.6,N/A,,Clear,190,2013-01-30 18:54:00
2:54 PM,73.9,60.1,62,29.83,10.0,South,15.0,25.3,N/A,,Mostly Cloudy,190,2013-01-30 19:54:00
3:54 PM,73.9,61.0,64,29.80,10.0,South,20.7,26.5,N/A,,Mostly Cloudy,180,2013-01-30 20:54:00
4:54 PM,71.1,60.1,68,29.78,10.0,South,20.7,29.9,N/A,,Partly Cloudy,180,2013-01-30 21:54:00
5:54 PM,70.0,60.1,71,29.76,10.0,South,19.6,27.6,N/A,,Partly Cloudy,190,2013-01-30 22:54:00
6:54 PM,69.1,60.1,73,29.74,10.0,South,17.3,27.6,N/A,,Clear,170,2013-01-30 23:54:00
7:54 PM,69.1,60.1,73,29.71,10.0,South,17.3,27.6,N/A,,Scattered Clouds,180,2013-01-31 00:54:00
8:54 PM,70.0,60.1,71,29.70,10.0,South,19.6,29.9,N/A,,Overcast,180,2013-01-31 01:54:00
9:47 PM,69.8,59.0,68,29.65,10.0,South,20.7,32.2,N/A,,Overcast,180,2013-01-31 02:47:00
9:54 PM,70.0,60.1,71,29.65,10.0,South,23.0,36.8,N/A,,Overcast,180,2013-01-31 02:54:00
10:40 PM,69.8,59.0,68,29.62,10.0,South,18.4,33.4,N/A,,Overcast,180,2013-01-31 03:40:00
10:49 PM,69.8,60.8,73,29.60,10.0,South,21.9,33.4,N/A,,Overcast,180,2013-01-31 03:49:00
10:54 PM,70.0,60.1,71,29.60,10.0,South,21.9,33.4,N/A,,Overcast,180,2013-01-31 03:54:00
11:38 PM,71.6,60.8,69,29.56,10.0,South,25.3,41.4,N/A,,Overcast,180,2013-01-31 04:38:00
11:54 PM,70.0,60.1,71,29.55,10.0,South,24.2,41.4,N/A,,Overcast,190,2013-01-31 04:54:00